Regional Weather Roundup
Issued by NWS

Home | Current Version | Previous Version | Graphics & Text | Print | Product List | Glossary On
Versions: 1 2 3 4 5 6 7 8 9 10 11 12 13 14 15 16 17 18 19 20 21 22 23 24 25 26 27 28 29 30 31 32 33 34 35 36 37 38 39 40 41 42 43 44 45 46 47 48 49 50
000
ASUS44 KMEG 201200
RWRTN
TENNESSEE HOURLY STATE WEATHER ROUNDUP
NATIONAL WEATHER SERVICE MEMPHIS TN
700 AM CDT WED SEP 20 2017

TNZ002-004-019-021-049-052-054-088>092-201300-
WEST TENNESSEE

CITY           SKY/WX    TMP DP  RH WIND       PRES   REMARKS
MEMPHIS INTL   PTCLDY    74  71  91 S7        29.96R
NWS MEMPHIS      N/A     72 N/A N/A MISG        N/A
JACKSON        CLEAR     72  71  97 S5        29.99R
DYERSBURG      CLEAR     72  70  93 S3        29.97R
$$

TNZ008-025-027-028-033-062-065-066-201300-
NORTH MIDDLE TENNESSEE

CITY           SKY/WX    TMP DP  RH WIND       PRES   REMARKS
NASHVILLE      PTCLDY    67  65  93 CALM      30.02R
CLARKSVILLE    CLEAR     67  65  93 CALM      30.00R FOG
SMYRNA         PTCLDY    68  68 100 S5        30.03
CROSSVILLE     PTCLDY    60  60 100 CALM      30.09R FOG
$$

TNZ061-075-076-078-094-096-097-201300-
SOUTH MIDDLE TENNESSEE

CITY           SKY/WX    TMP DP  RH WIND       PRES   REMARKS
MCMINNVILLE      N/A     61  61 100 CALM      30.05R VSB 3/4
$$

TNZ017-018-042-046-047-201300-
NORTHEAST TENNESSEE

CITY           SKY/WX    TMP DP  RH WIND       PRES   REMARKS
TRI CITIES     PTCLDY    59  59 100 CALM      30.10R
$$

TNZ012-013-036-069-073-074-201300-
CENTRAL EAST TENNESSEE

CITY           SKY/WX    TMP DP  RH WIND       PRES   REMARKS
KNOXVILLE      PTCLDY    62  61  96 CALM      30.06R FOG
OAK RIDGE      FOG       62  61  96 CALM      30.08R VSB 1/4
GATLINBURG     CLEAR     57  57 100 CALM      30.07R
$$

TNZ083-085-099-201300-
SOUTHEAST TENNESSEE

CITY           SKY/WX    TMP DP  RH WIND       PRES   REMARKS
CHATTANOOGA    FOG       66  65  96 CALM      30.05R VSB 1/2
$$

SKY/WX REPORTED AS FAIR MEANS FEW OR NO CLOUDS BELOW
12 THOUSAND FEET.





USA.gov is the U.S. government's official web portal to all federal, state and local government web resources and services.